| time (UTC) | temp C | wind direction | speed KPH | gust KPH | rain 1hr cm | rain 24hr cm | rain mn cm | humidity % | barometer mb |
| 20260506001842 | 11 | 40 | 9.7 | 0.0 | 0.00 | 0.00 | 0.00 | 88 | 1013.0 |
| 20260506000342 | 11 | 40 | 9.7 | 0.0 | 0.00 | 0.00 | 0.00 | 88 | 1013.0 |
| 20260505234841 | 11 | 70 | 9.7 | 0.0 | 0.00 | 0.00 | 0.00 | 88 | 1013.0 |
| 20260505233341 | 11 | 70 | 9.7 | 0.0 | 0.00 | 0.00 | 0.00 | 88 | 1013.0 |
| 20260505231841 | 11 | 70 | 11.3 | 0.0 | 0.00 | 0.00 | 0.00 | 88 | 1014.0 |
| 20260505230342 | 11 | 70 | 11.3 | 0.0 | 0.00 | 0.00 | 0.00 | 88 | 1014.0 |
| 20260505224842 | 12 | 70 | 9.7 | 0.0 | 0.00 | 0.00 | 0.00 | 82 | 1014.0 |
| 20260505223341 | 12 | 70 | 9.7 | 0.0 | 0.00 | 0.00 | 0.00 | 82 | 1014.0 |
| 20260505221839 | 12 | 110 | 9.7 | 0.0 | 0.00 | 0.00 | 0.00 | 82 | 1014.0 |
| 20260505220341 | 12 | 110 | 9.7 | 0.0 | 0.00 | 0.00 | 0.00 | 82 | 1014.0 |
| 20260505214842 | 12 | 90 | 8.0 | 0.0 | 0.00 | 0.00 | 0.00 | 82 | 1014.0 |
| 20260505213341 | 12 | 90 | 8.0 | 0.0 | 0.00 | 0.00 | 0.00 | 82 | 1014.0 |
| 20260505211841 | 15 | 300 | 4.8 | 0.0 | 0.00 | 0.00 | 0.00 | 63 | 1014.0 |
| 20260505210341 | 15 | 300 | 4.8 | 0.0 | 0.00 | 0.00 | 0.00 | 63 | 1014.0 |
| 20260505204843 | 16 | 160 | 8.0 | 0.0 | 0.00 | 0.00 | 0.00 | 59 | 1013.0 |
| 20260505203341 | 16 | 160 | 8.0 | 0.0 | 0.00 | 0.00 | 0.00 | 59 | 1013.0 |
| 20260505201912 | 16 | 160 | 9.7 | 0.0 | 0.00 | 0.00 | 0.00 | 59 | 1013.0 |
| 20260505200342 | 16 | 160 | 9.7 | 0.0 | 0.00 | 0.00 | 0.00 | 59 | 1013.0 |
| 20260505194841 | 17 | 180 | 9.7 | 0.0 | 0.00 | 0.00 | 0.00 | 56 | 1013.0 |
| 20260505193341 | 17 | 180 | 9.7 | 0.0 | 0.00 | 0.00 | 0.00 | 56 | 1013.0 |
| 20260505191841 | 17 | 180 | 8.0 | 0.0 | 0.00 | 0.00 | 0.00 | 52 | 1013.0 |
| 20260505190341 | 17 | 180 | 8.0 | 0.0 | 0.00 | 0.00 | 0.00 | 52 | 1013.0 |
| 20260505184842 | 18 | 180 | 4.8 | 0.0 | 0.00 | 0.00 | 0.00 | 49 | 1013.0 |
| 20260505183342 | 18 | 180 | 4.8 | 0.0 | 0.00 | 0.00 | 0.00 | 49 | 1013.0 |
| 20260505181842 | 21 | 210 | 8.0 | 0.0 | 0.00 | 0.00 | 0.00 | 40 | 1013.0 |
| 20260505180341 | 21 | 210 | 8.0 | 0.0 | 0.00 | 0.00 | 0.00 | 40 | 1013.0 |
| 20260505174839 | 22 | 230 | 8.0 | 0.0 | 0.00 | 0.00 | 0.00 | 36 | 1013.0 |
| 20260505173341 | 22 | 230 | 8.0 | 0.0 | 0.00 | 0.00 | 0.00 | 36 | 1013.0 |
| 20260505171841 | 22 | 230 | 9.7 | 0.0 | 0.00 | 0.00 | 0.00 | 33 | 1013.0 |
| 20260505170341 | 22 | 230 | 9.7 | 0.0 | 0.00 | 0.00 | 0.00 | 33 | 1013.0 |
| 20260505164841 | 23 | 230 | 12.9 | 0.0 | 0.00 | 0.00 | 0.00 | 31 | 1013.0 |
| 20260505163341 | 23 | 230 | 12.9 | 0.0 | 0.00 | 0.00 | 0.00 | 31 | 1013.0 |
| 20260505161842 | 25 | 230 | 12.9 | 0.0 | 0.00 | 0.00 | 0.00 | 28 | 1013.0 |
| 20260505160342 | 25 | 230 | 12.9 | 0.0 | 0.00 | 0.00 | 0.00 | 28 | 1013.0 |
| 20260505153341 | 25 | 240 | 14.5 | 0.0 | 0.00 | 0.00 | 0.00 | 30 | 1013.0 |
| 20260505151850 | 26 | 220 | 14.5 | 0.0 | 0.00 | 0.00 | 0.00 | 26 | 1013.0 |
| 20260505150342 | 26 | 220 | 14.5 | 0.0 | 0.00 | 0.00 | 0.00 | 26 | 1013.0 |
| 20260505140341 | 26 | 280 | 14.5 | 0.0 | 0.00 | 0.00 | 0.00 | 28 | 1013.0 |
| 20260505124841 | 25 | 8.0 | 0.0 | 0.00 | 0.00 | 0.00 | 32 | 1014.0 | |
| 20260505123341 | 25 | 8.0 | 0.0 | 0.00 | 0.00 | 0.00 | 32 | 1014.0 | |
| 20260505121841 | 26 | 220 | 11.3 | 0.0 | 0.00 | 0.00 | 0.00 | 28 | 1014.0 |
| 20260505120351 | 26 | 270 | 11.3 | 0.0 | 0.00 | 0.00 | 0.00 | 32 | 1015.0 |
| 20260505114849 | 26 | 270 | 11.3 | 0.0 | 0.00 | 0.00 | 0.00 | 32 | 1015.0 |
| 20260505113412 | 26 | 270 | 11.3 | 0.0 | 0.00 | 0.00 | 0.00 | 32 | 1015.0 |
| 20260505111841 | 25 | 290 | 11.3 | 0.0 | 0.00 | 0.00 | 0.00 | 36 | 1015.0 |
| 20260505110342 | 25 | 290 | 11.3 | 0.0 | 0.00 | 0.00 | 0.00 | 36 | 1015.0 |
| 20260505101842 | 23 | 260 | 11.3 | 0.0 | 0.00 | 0.00 | 0.00 | 41 | 1015.0 |
| 20260505100342 | 23 | 260 | 11.3 | 0.0 | 0.00 | 0.00 | 0.00 | 41 | 1015.0 |
| 20260505094843 | 23 | 240 | 9.7 | 0.0 | 0.00 | 0.00 | 0.00 | 39 | 1016.0 |
| 20260505093341 | 23 | 240 | 9.7 | 0.0 | 0.00 | 0.00 | 0.00 | 39 | 1016.0 |
| 20260505091841 | 22 | 3.2 | 0.0 | 0.00 | 0.00 | 0.00 | 41 | 1016.0 | |
| 20260505090341 | 22 | 3.2 | 0.0 | 0.00 | 0.00 | 0.00 | 41 | 1016.0 | |
| 20260505084841 | 22 | 60 | 4.8 | 0.0 | 0.00 | 0.00 | 0.00 | 41 | 1016.0 |
| 20260505083342 | 22 | 60 | 4.8 | 0.0 | 0.00 | 0.00 | 0.00 | 41 | 1016.0 |
| 20260505081842 | 22 | 3.2 | 0.0 | 0.00 | 0.00 | 0.00 | 41 | 1016.0 | |
| 20260505080341 | 22 | 3.2 | 0.0 | 0.00 | 0.00 | 0.00 | 41 | 1016.0 | |
| 20260505074902 | 21 | 70 | 4.8 | 0.0 | 0.00 | 0.00 | 0.00 | 43 | 1016.0 |
| 20260505073341 | 21 | 70 | 4.8 | 0.0 | 0.00 | 0.00 | 0.00 | 43 | 1016.0 |
| 20260505071841 | 21 | 0 | 0.0 | 0.0 | 0.00 | 0.00 | 0.00 | 43 | 1016.0 |
| 20260505070341 | 21 | 0 | 0.0 | 0.0 | 0.00 | 0.00 | 0.00 | 43 | 1016.0 |
| 20260505064841 | 17 | 1.6 | 0.0 | 0.00 | 0.00 | 0.00 | 64 | 1016.0 | |
| 20260505063342 | 17 | 1.6 | 0.0 | 0.00 | 0.00 | 0.00 | 64 | 1016.0 | |
| 20260505061841 | 16 | 1.6 | 0.0 | 0.00 | 0.00 | 0.00 | 68 | 1016.0 | |
| 20260505060342 | 16 | 1.6 | 0.0 | 0.00 | 0.00 | 0.00 | 68 | 1016.0 | |
| 20260505054841 | 12 | 80 | 8.0 | 0.0 | 0.00 | 0.00 | 0.00 | 77 | 1016.0 |
| 20260505053342 | 12 | 80 | 8.0 | 0.0 | 0.00 | 0.00 | 0.00 | 77 | 1016.0 |
| 20260505051841 | 12 | 3.2 | 0.0 | 0.00 | 0.00 | 0.00 | 82 | 1016.0 | |
| 20260505050341 | 12 | 3.2 | 0.0 | 0.00 | 0.00 | 0.00 | 82 | 1016.0 | |
| 20260505040341 | 10 | 3.2 | 0.0 | 0.00 | 0.00 | 0.00 | 88 | 1016.0 | |
| 20260505034841 | 7 | 300 | 8.0 | 0.0 | 0.00 | 0.00 | 0.00 | 93 | 1016.0 |
| 20260505033341 | 7 | 300 | 8.0 | 0.0 | 0.00 | 0.00 | 0.00 | 93 | 1016.0 |
| 20260505031841 | 7 | 280 | 11.3 | 0.0 | 0.00 | 0.00 | 0.00 | 93 | 1015.0 |
| 20260505030341 | 7 | 280 | 11.3 | 0.0 | 0.00 | 0.00 | 0.00 | 93 | 1015.0 |
| 20260505024841 | 7 | 320 | 4.8 | 0.0 | 0.00 | 0.00 | 0.00 | 93 | 1015.0 |
| 20260505023341 | 7 | 320 | 4.8 | 0.0 | 0.00 | 0.00 | 0.00 | 93 | 1015.0 |
| 20260505021841 | 8 | 320 | 8.0 | 0.0 | 0.00 | 0.00 | 0.00 | 87 | 1015.0 |
| 20260505020341 | 8 | 320 | 8.0 | 0.0 | 0.00 | 0.00 | 0.00 | 87 | 1015.0 |
| 20260505014841 | 8 | 340 | 4.8 | 0.0 | 0.00 | 0.00 | 0.00 | 82 | 1015.0 |
| 20260505013342 | 8 | 340 | 4.8 | 0.0 | 0.00 | 0.00 | 0.00 | 82 | 1015.0 |
| 20260505011841 | 10 | 320 | 8.0 | 0.0 | 0.00 | 0.00 | 0.00 | 82 | 1015.0 |
| 20260505010342 | 10 | 320 | 8.0 | 0.0 | 0.00 | 0.00 | 0.00 | 82 | 1015.0 |
| 20260505004841 | 8 | 310 | 8.0 | 0.0 | 0.00 | 0.00 | 0.00 | 82 | 1015.0 |
| 20260505003341 | 8 | 310 | 8.0 | 0.0 | 0.00 | 0.00 | 0.00 | 82 | 1015.0 |